This is the latest recevied weather packets stored in our database for station/object K5NAN. If no packets are shown the sender has not sent any weather packets the latest 10 day(s).
| Time | Temp. | Humidity | Pressure | Rain* | Wind** | Luminosity | Snow |
|---|---|---|---|---|---|---|---|
| 1778011563 | 28.33° C | 69% | 1003.6 hPa | 0 mm | - | 795 W/m² | - |
| 1778011260 | 28.33° C | 69% | 1003.9 hPa | 0 mm | - | 847 W/m² | - |
| 1778010956 | 27.78° C | 68% | 1003.6 hPa | 0 mm | - | 647 W/m² | - |
| 1778010654 | 27.78° C | 68% | 1003.7 hPa | 0 mm | - | 689 W/m² | - |
| 1778010350 | 27.78° C | 69% | 1003.6 hPa | 0 mm | - | 696 W/m² | - |
| 1778010046 | 27.78° C | 68% | 1003.7 hPa | 0 mm | - | 638 W/m² | - |
| 1778009743 | 27.78° C | 69% | 1003.7 hPa | 0 mm | - | 380 W/m² | - |
| 1778009440 | 27.78° C | 69% | 1003.6 hPa | 0 mm | - | 621 W/m² | - |
| 1778009139 | 27.22° C | 69% | 1003.6 hPa | 0 mm | - | 804 W/m² | - |
| 1778008836 | 27.22° C | 71% | 1003.7 hPa | 0 mm | - | 719 W/m² | - |
| 1778008535 | 27.22° C | 71% | 1003.7 hPa | 0 mm | - | 594 W/m² | - |
| 1778008232 | 27.22° C | 70% | 1003.8 hPa | 0 mm | - | 586 W/m² | - |
| 1778007932 | 26.67° C | 71% | 1003.8 hPa | 0 mm | - | 618 W/m² | - |
| 1778007629 | 26.67° C | 71% | 1003.9 hPa | 0 mm | - | 565 W/m² | - |
| 1778007325 | 26.67° C | 72% | 1004 hPa | 0 mm | - | 417 W/m² | - |
| 1778007022 | 26.67° C | 72% | 1004.2 hPa | 0 mm | - | 445 W/m² | - |
| 1778006719 | 26.67° C | 71% | 1004 hPa | 0 mm | - | 366 W/m² | - |
| 1778006415 | 26.67° C | 71% | 1003.9 hPa | 0 mm | - | 345 W/m² | - |
| 1778006113 | 26.67° C | 70% | 1003.9 hPa | 0 mm | - | 554 W/m² | - |
| 1778005810 | 27.22° C | 70% | 1003.9 hPa | 0 mm | - | 431 W/m² | - |
| 1778005506 | 27.22° C | 69% | 1004.1 hPa | 0 mm | - | 495 W/m² | - |
| 1778005202 | 26.67° C | 71% | 1003.9 hPa | 0 mm | - | 617 W/m² | - |
| 1778004899 | 26.67° C | 70% | 1003.8 hPa | 0 mm | - | 676 W/m² | - |
| 1778004596 | 27.22° C | 69% | 1003.7 hPa | 0 mm | - | 470 W/m² | - |
| 1778004292 | 27.22° C | 69% | 1003.8 hPa | 0 mm | - | 533 W/m² | - |
* Rain latest hour (hover to see other rain measurements)
** Current wind speed in m/s (hover to see current wind gust speed)